CZ-2C R/B, 52794

Orbit data source: Space-Track

CZ-2C R/B, 52794 is space debris in LEO originally from a launch on Thu, 02 Jun 2022 UTC launched from the Xichang Space Center, China (XSC). Debris objects in space refer to the collection of defunct objects orbiting the Earth. Examples of debris include non-operational satellites, rocket bodies, and fragments generated from explosions, collisions, or faulty payload assembly.

Loading next visibility...
Identifier
52794, 2022-058K
Orbit
LEO
Country
Flag of CNCN / PRC
Related business
Manufacturer
CALT
Mission
Spacecraft
Bus & Motor
CZ-2 STAGE 2, Unknown motor
Mass
~3,800 kg wet, ~3,800 kg dry
Launch date (UTC)
2022-06-02 (4 years ago)
Launch vehicle
Unknown
Launch site
Xichang Space Center, China (XSC)
Object type
Payload
Rocket body
Debris
Shape & HBR
Cyl, 3.7 m
Radar Cross Section
23.715 m², Large (>1 m²)

Expand to show TLE details & history
Last TLE update: 2 days ago

TLE from 2 days ago
0 CZ-2C R/B
1 52794U 22058K   26171.31288139  .00034149  00000-0  37678-3 0  9991
2 52794  50.1848 147.2516 0032400 280.9513  78.7816 15.62055000226133
Epoch: 2026-06-20T07:30Z
TLE epoch observation values (Epoch: 2026-06-20T07:30:32.952Z)
Latitude
-0.00002°
Longitude
126.08498°
Altitude
378.113 km
Speed
7.687 km/s
True Right ascension
09h 49m 00s
True Declination
0° 00' 00"
Sunlit
Object was in daylight at epoch
Visualization orbit readout
Latitude
Unknown
Longitude
Unknown
Altitude
Unknown
Speed
Unknown
Apparent Right ascension
Unknown
Apparent Declination
Unknown
Sunlit
N/A
Visualization observer readout
Local Sidereal Time
21:57:15
Azimuth
Unknown
Elevation
Unknown
Doppler factor
Unknown
Orbital elements
Apogee altitude
404.38 km
Perigee altitude
360.571 km
Semi-major axis
6,760.612 km
Eccentricity
0.00324
Inclination
50.1848°
RAAN
147.2516°
Arg. of periapsis
280.9513°
True anomaly
79.14607°
Mean anomaly
78.7816°
Eccentric anomaly
78.96381°
Mean motion
3.90449 °/min
Orbital period
92.2 mins
BSTAR
0.00037678
Loading maneuver chart data...
Computing Atmospheric mass density...
Loading historical data...
Loading historical data...
Loading historical data...
Loading historical data...
Loading historical data...
Loading historical data...
Loading historical data...

Documentation

Showing up to 5 results
|